| time (UTC) | temp F | wind direction | speed MPH | gust MPH | rain 1hr in | rain 24hr in | rain mn in | humidity % | barometer mb |
| 20260510204515 | 65 | 287 | 0.0 | 2.0 | 0.00 | 0.00 | 0.00 | 991.8 | |
| 20260510204016 | 65 | 331 | 4.0 | 0.0 | 0.00 | 0.00 | 0.00 | 991.8 | |
| 20260510203523 | 65 | 44 | 3.0 | 0.0 | 0.00 | 0.00 | 0.00 | 991.8 | |
| 20260510203035 | 65 | 343 | 3.0 | 0.0 | 0.00 | 0.00 | 0.00 | 991.8 | |
| 20260510202513 | 65 | 226 | 3.0 | 3.0 | 0.00 | 0.00 | 0.00 | 991.8 | |
| 20260510202015 | 64 | 255 | 0.0 | 3.0 | 0.00 | 0.00 | 0.00 | 991.8 | |
| 20260510201513 | 64 | 320 | 4.0 | 3.0 | 0.00 | 0.00 | 0.00 | 991.8 | |
| 20260510201020 | 63 | 311 | 0.0 | 0.0 | 0.00 | 0.00 | 0.00 | 991.8 | |
| 20260510200514 | 63 | 322 | 0.0 | 4.0 | 0.00 | 0.00 | 0.00 | 991.8 | |
| 20260510200014 | 63 | 257 | 0.0 | 0.0 | 0.00 | 0.00 | 0.00 | 991.8 | |
| 20260510195515 | 64 | 332 | 2.0 | 3.0 | 0.00 | 0.00 | 0.00 | 991.8 | |
| 20260510195016 | 64 | 357 | 4.0 | 4.0 | 0.00 | 0.00 | 0.00 | 991.8 | |
| 20260510194514 | 65 | 323 | 0.0 | 3.0 | 0.00 | 0.00 | 0.00 | 991.8 | |
| 20260510194022 | 66 | 337 | 0.0 | 5.0 | 0.00 | 0.00 | 0.00 | 991.8 | |
| 20260510193514 | 66 | 272 | 0.0 | 4.0 | 0.00 | 0.00 | 0.00 | 991.8 | |
| 20260510193025 | 66 | 313 | 0.0 | 6.0 | 0.00 | 0.00 | 0.00 | 991.8 | |
| 20260510192514 | 66 | 25 | 4.0 | 0.0 | 0.00 | 0.00 | 0.00 | 991.8 | |
| 20260510192017 | 67 | 235 | 3.0 | 5.0 | 0.00 | 0.00 | 0.00 | 991.8 | |
| 20260510191514 | 66 | 190 | 0.0 | 4.0 | 0.00 | 0.00 | 0.00 | 991.8 | |
| 20260510191015 | 67 | 350 | 4.0 | 8.0 | 0.00 | 0.00 | 0.00 | 991.8 | |
| 20260510190514 | 67 | 326 | 5.0 | 0.0 | 0.00 | 0.00 | 0.00 | 991.8 | |
| 20260510190025 | 66 | 281 | 2.0 | 0.0 | 0.00 | 0.00 | 0.00 | 991.8 | |
| 20260510185513 | 66 | 274 | 0.0 | 2.0 | 0.00 | 0.00 | 0.00 | 991.8 | |
| 20260510185024 | 65 | 308 | 0.0 | 0.0 | 0.00 | 0.00 | 0.00 | 991.8 | |
| 20260510184515 | 65 | 328 | 0.0 | 3.0 | 0.00 | 0.00 | 0.00 | 991.8 | |
| 20260510184013 | 65 | 51 | 4.0 | 2.0 | 0.00 | 0.00 | 0.00 | 991.8 | |
| 20260510183514 | 64 | 197 | 3.0 | 3.0 | 0.00 | 0.00 | 0.00 | 991.8 | |
| 20260510183018 | 64 | 334 | 0.0 | 6.0 | 0.00 | 0.00 | 0.00 | 991.8 | |
| 20260510182513 | 64 | 219 | 0.0 | 0.0 | 0.00 | 0.00 | 0.00 | 991.8 | |
| 20260510182019 | 64 | 225 | 0.0 | 4.0 | 0.00 | 0.00 | 0.00 | 991.8 | |
| 20260510181513 | 63 | 179 | 0.0 | 3.0 | 0.00 | 0.00 | 0.00 | 991.8 | |
| 20260510181015 | 63 | 343 | 0.0 | 3.0 | 0.00 | 0.00 | 0.00 | 991.8 | |
| 20260510180514 | 64 | 308 | 0.0 | 0.0 | 0.00 | 0.00 | 0.00 | 991.8 | |
| 20260510180024 | 64 | 178 | 0.0 | 0.0 | 0.00 | 0.00 | 0.00 | 992.8 | |
| 20260510175514 | 64 | 208 | 0.0 | 0.0 | 0.00 | 0.00 | 0.00 | 992.8 | |
| 20260510175018 | 64 | 228 | 4.0 | 3.0 | 0.00 | 0.00 | 0.00 | 992.8 | |
| 20260510174513 | 64 | 187 | 0.0 | 0.0 | 0.00 | 0.00 | 0.00 | 991.8 | |
| 20260510174014 | 64 | 233 | 0.0 | 0.0 | 0.00 | 0.00 | 0.00 | 991.8 | |
| 20260510173513 | 65 | 190 | 3.0 | 4.0 | 0.00 | 0.00 | 0.00 | 991.8 | |
| 20260510173014 | 64 | 222 | 0.0 | 3.0 | 0.00 | 0.00 | 0.00 | 991.8 | |
| 20260510172534 | 66 | 282 | 0.0 | 5.0 | 0.00 | 0.00 | 0.00 | 991.8 | |
| 20260510172042 | 66 | 303 | 0.0 | 0.0 | 0.00 | 0.00 | 0.00 | 991.8 | |
| 20260510171535 | 66 | 299 | 0.0 | 0.0 | 0.00 | 0.00 | 0.00 | 991.8 | |
| 20260510171013 | 66 | 311 | 0.0 | 0.0 | 0.00 | 0.00 | 0.00 | 991.8 | |
| 20260510170514 | 65 | 220 | 0.0 | 0.0 | 0.00 | 0.00 | 0.00 | 991.8 | |
| 20260510170018 | 65 | 219 | 0.0 | 4.0 | 0.00 | 0.00 | 0.00 | 991.8 | |
| 20260510165513 | 66 | 231 | 0.0 | 0.0 | 0.00 | 0.00 | 0.00 | 991.8 | |
| 20260510165015 | 66 | 345 | 0.0 | 3.0 | 0.00 | 0.00 | 0.00 | 991.8 | |
| 20260510164515 | 66 | 332 | 0.0 | 0.0 | 0.00 | 0.00 | 0.00 | 991.8 | |
| 20260510164014 | 66 | 22 | 2.0 | 0.0 | 0.00 | 0.00 | 0.00 | 991.8 | |
| 20260510163514 | 65 | 223 | 3.0 | 0.0 | 0.00 | 0.00 | 0.00 | 991.8 | |
| 20260510163014 | 65 | 318 | 4.0 | 0.0 | 0.00 | 0.00 | 0.00 | 991.8 | |
| 20260510162514 | 65 | 0 | 4.0 | 4.0 | 0.00 | 0.00 | 0.00 | 991.8 | |
| 20260510162013 | 66 | 341 | 0.0 | 0.0 | 0.00 | 0.00 | 0.00 | 991.8 | |
| 20260510161514 | 66 | 236 | 0.0 | 4.0 | 0.00 | 0.00 | 0.00 | 991.8 | |
| 20260510161013 | 65 | 260 | 2.0 | 3.0 | 0.00 | 0.00 | 0.00 | 991.8 | |
| 20260510160514 | 65 | 262 | 0.0 | 0.0 | 0.00 | 0.00 | 0.00 | 991.8 | |
| 20260510160024 | 65 | 280 | 2.0 | 2.0 | 0.00 | 0.00 | 0.00 | 991.8 | |
| 20260510155514 | 65 | 338 | 4.0 | 0.0 | 0.00 | 0.00 | 0.00 | 991.8 | |
| 20260510155014 | 64 | 221 | 0.0 | 0.0 | 0.00 | 0.00 | 0.00 | 991.8 | |
| 20260510154513 | 64 | 331 | 0.0 | 0.0 | 0.00 | 0.00 | 0.00 | 991.8 | |
| 20260510154015 | 64 | 212 | 3.0 | 0.0 | 0.00 | 0.00 | 0.00 | 991.8 | |
| 20260510153534 | 64 | 5 | 0.0 | 0.0 | 0.00 | 0.00 | 0.00 | 991.8 | |
| 20260510153015 | 63 | 197 | 0.0 | 0.0 | 0.00 | 0.00 | 0.00 | 991.8 | |
| 20260510152513 | 62 | 335 | 0.0 | 0.0 | 0.00 | 0.00 | 0.00 | 991.8 | |
| 20260510152037 | 62 | 343 | 0.0 | 0.0 | 0.00 | 0.00 | 0.00 | 991.8 | |
| 20260510151514 | 61 | 350 | 0.0 | 0.0 | 0.00 | 0.00 | 0.00 | 991.8 | |
| 20260510151013 | 61 | 19 | 0.0 | 3.0 | 0.00 | 0.00 | 0.00 | 991.8 | |
| 20260510150513 | 61 | 34 | 2.0 | 0.0 | 0.00 | 0.00 | 0.00 | 991.8 | |
| 20260510150015 | 61 | 14 | 2.0 | 3.0 | 0.00 | 0.00 | 0.00 | 990.8 | |
| 20260510145514 | 61 | 227 | 0.0 | 0.0 | 0.00 | 0.00 | 0.00 | 990.8 | |
| 20260510145019 | 61 | 227 | 0.0 | 0.0 | 0.00 | 0.00 | 0.00 | 990.8 | |
| 20260510144513 | 61 | 216 | 0.0 | 0.0 | 0.00 | 0.00 | 0.00 | 990.8 | |
| 20260510144014 | 60 | 216 | 0.0 | 0.0 | 0.00 | 0.00 | 0.00 | 990.8 | |
| 20260510143534 | 60 | 196 | 0.0 | 0.0 | 0.00 | 0.00 | 0.00 | 990.8 | |
| 20260510143015 | 60 | 196 | 0.0 | 0.0 | 0.00 | 0.00 | 0.00 | 990.8 | |
| 20260510142514 | 60 | 211 | 0.0 | 0.0 | 0.00 | 0.00 | 0.00 | 990.8 | |
| 20260510142021 | 59 | 211 | 0.0 | 0.0 | 0.00 | 0.00 | 0.00 | 990.8 | |
| 20260510141514 | 59 | 41 | 0.0 | 0.0 | 0.00 | 0.00 | 0.00 | 990.8 | |
| 20260510141034 | 58 | 41 | 0.0 | 0.0 | 0.00 | 0.00 | 0.00 | 990.8 | |
| 20260510140514 | 58 | 41 | 0.0 | 0.0 | 0.00 | 0.00 | 0.00 | 990.8 | |
| 20260510140015 | 58 | 41 | 0.0 | 0.0 | 0.00 | 0.00 | 0.00 | 990.8 | |
| 20260510135514 | 57 | 39 | 0.0 | 0.0 | 0.00 | 0.00 | 0.00 | 990.8 | |
| 20260510135019 | 57 | 39 | 0.0 | 0.0 | 0.00 | 0.00 | 0.00 | 990.8 | |
| 20260510134514 | 56 | 29 | 0.0 | 0.0 | 0.00 | 0.00 | 0.00 | 990.8 | |
| 20260510134019 | 56 | 46 | 0.0 | 0.0 | 0.00 | 0.00 | 0.00 | 990.8 | |
| 20260510133513 | 56 | 46 | 0.0 | 0.0 | 0.00 | 0.00 | 0.00 | 990.8 | |
| 20260510133024 | 55 | 46 | 0.0 | 0.0 | 0.00 | 0.00 | 0.00 | 989.8 | |
| 20260510132514 | 55 | 37 | 0.0 | 0.0 | 0.00 | 0.00 | 0.00 | 989.8 | |
| 20260510132014 | 54 | 36 | 0.0 | 0.0 | 0.00 | 0.00 | 0.00 | 989.8 | |
| 20260510131514 | 54 | 36 | 0.0 | 0.0 | 0.00 | 0.00 | 0.00 | 989.8 | |
| 20260510131014 | 53 | 9 | 0.0 | 0.0 | 0.00 | 0.00 | 0.00 | 989.8 | |
| 20260510130514 | 52 | 9 | 0.0 | 0.0 | 0.00 | 0.00 | 0.00 | 989.8 | |
| 20260510130015 | 51 | 9 | 0.0 | 0.0 | 0.00 | 0.00 | 0.00 | 989.8 | |
| 20260510125514 | 50 | 8 | 0.0 | 0.0 | 0.00 | 0.00 | 0.00 | 989.8 | |
| 20260510125016 | 49 | 8 | 0.0 | 0.0 | 0.00 | 0.00 | 0.00 | 989.8 | |
| 20260510124514 | 48 | 8 | 0.0 | 0.0 | 0.00 | 0.00 | 0.00 | 989.8 | |
| 20260510124014 | 47 | 8 | 0.0 | 0.0 | 0.00 | 0.00 | 0.00 | 989.8 | |
| 20260510123514 | 46 | 8 | 0.0 | 0.0 | 0.00 | 0.00 | 0.00 | 989.8 | |
| 20260510123019 | 46 | 8 | 0.0 | 0.0 | 0.00 | 0.00 | 0.00 | 988.8 | |
| 20260510122525 | 45 | 8 | 0.0 | 0.0 | 0.00 | 0.00 | 0.00 | 988.8 | |
| 20260510122016 | 44 | 8 | 0.0 | 0.0 | 0.00 | 0.00 | 0.00 | 988.8 | |
| 20260510121520 | 43 | 8 | 0.0 | 0.0 | 0.00 | 0.00 | 0.00 | 988.8 | |
| 20260510121014 | 43 | 8 | 0.0 | 0.0 | 0.00 | 0.00 | 0.00 | 988.8 | |
| 20260510120521 | 42 | 8 | 0.0 | 0.0 | 0.00 | 0.00 | 0.00 | 988.8 | |
| 20260510120016 | 42 | 8 | 0.0 | 0.0 | 0.00 | 0.00 | 0.00 | 988.8 | |
| 20260510115535 | 41 | 8 | 0.0 | 0.0 | 0.00 | 0.00 | 0.00 | 988.8 | |
| 20260510115020 | 40 | 8 | 0.0 | 0.0 | 0.00 | 0.00 | 0.00 | 988.8 | |
| 20260510114515 | 39 | 8 | 0.0 | 0.0 | 0.00 | 0.00 | 0.00 | 988.8 | |
| 20260510114024 | 39 | 8 | 0.0 | 0.0 | 0.00 | 0.00 | 0.00 | 988.8 | |
| 20260510113514 | 39 | 8 | 0.0 | 0.0 | 0.00 | 0.00 | 0.00 | 988.8 | |
| 20260510113021 | 38 | 8 | 0.0 | 0.0 | 0.00 | 0.00 | 0.00 | 988.8 | |
| 20260510112519 | 38 | 8 | 0.0 | 0.0 | 0.00 | 0.00 | 0.00 | 988.8 | |
| 20260510112014 | 38 | 8 | 0.0 | 0.0 | 0.00 | 0.00 | 0.00 | 988.8 | |
| 20260510111514 | 37 | 8 | 0.0 | 0.0 | 0.00 | 0.00 | 0.00 | 987.8 | |
| 20260510111014 | 36 | 8 | 0.0 | 0.0 | 0.00 | 0.00 | 0.00 | 987.8 | |
| 20260510110514 | 36 | 8 | 0.0 | 0.0 | 0.00 | 0.00 | 0.00 | 987.8 | |
| 20260510110024 | 36 | 8 | 0.0 | 0.0 | 0.00 | 0.00 | 0.00 | 987.8 | |
| 20260510105514 | 36 | 8 | 0.0 | 0.0 | 0.00 | 0.00 | 0.00 | 987.8 | |
| 20260510105014 | 36 | 8 | 0.0 | 0.0 | 0.00 | 0.00 | 0.00 | 987.8 | |
| 20260510104519 | 36 | 8 | 0.0 | 0.0 | 0.00 | 0.00 | 0.00 | 987.8 | |
| 20260510104014 | 37 | 8 | 0.0 | 0.0 | 0.00 | 0.00 | 0.00 | 987.8 | |
| 20260510103514 | 37 | 8 | 0.0 | 0.0 | 0.00 | 0.00 | 0.00 | 987.8 | |
| 20260510103024 | 37 | 8 | 0.0 | 0.0 | 0.00 | 0.00 | 0.00 | 987.8 | |
| 20260510102515 | 37 | 8 | 0.0 | 0.0 | 0.00 | 0.00 | 0.00 | 987.8 | |
| 20260510102036 | 37 | 8 | 0.0 | 0.0 | 0.00 | 0.00 | 0.00 | 987.8 | |
| 20260510101521 | 38 | 8 | 0.0 | 0.0 | 0.00 | 0.00 | 0.00 | 987.8 | |
| 20260510101018 | 38 | 8 | 0.0 | 0.0 | 0.00 | 0.00 | 0.00 | 987.8 | |
| 20260510100513 | 38 | 8 | 0.0 | 0.0 | 0.00 | 0.00 | 0.00 | 987.8 | |
| 20260510100015 | 38 | 8 | 0.0 | 0.0 | 0.00 | 0.00 | 0.00 | 987.8 | |
| 20260510095514 | 38 | 8 | 0.0 | 0.0 | 0.00 | 0.00 | 0.00 | 987.8 | |
| 20260510095015 | 38 | 8 | 0.0 | 0.0 | 0.00 | 0.00 | 0.00 | 987.8 | |
| 20260510094535 | 38 | 8 | 0.0 | 0.0 | 0.00 | 0.00 | 0.00 | 987.8 | |
| 20260510094021 | 38 | 8 | 0.0 | 0.0 | 0.00 | 0.00 | 0.00 | 987.8 | |
| 20260510093518 | 38 | 8 | 0.0 | 0.0 | 0.00 | 0.00 | 0.00 | 987.8 | |
| 20260510093041 | 38 | 8 | 0.0 | 0.0 | 0.00 | 0.00 | 0.00 | 987.8 | |
| 20260510092514 | 39 | 8 | 0.0 | 0.0 | 0.00 | 0.00 | 0.00 | 987.8 | |
| 20260510092015 | 39 | 8 | 0.0 | 0.0 | 0.00 | 0.00 | 0.00 | 987.8 | |
| 20260510091516 | 39 | 8 | 0.0 | 0.0 | 0.00 | 0.00 | 0.00 | 987.8 | |
| 20260510091016 | 39 | 8 | 0.0 | 0.0 | 0.00 | 0.00 | 0.00 | 987.8 | |
| 20260510090514 | 40 | 8 | 0.0 | 0.0 | 0.00 | 0.00 | 0.00 | 987.8 | |
| 20260510090016 | 40 | 8 | 0.0 | 0.0 | 0.00 | 0.00 | 0.00 | 986.8 | |
| 20260510085516 | 40 | 8 | 0.0 | 0.0 | 0.00 | 0.00 | 0.00 | 986.8 | |
| 20260510085016 | 40 | 8 | 0.0 | 0.0 | 0.00 | 0.00 | 0.00 | 986.8 | |
| 20260510084523 | 40 | 8 | 0.0 | 0.0 | 0.00 | 0.00 | 0.00 | 986.8 | |
| 20260510084014 | 40 | 8 | 0.0 | 0.0 | 0.00 | 0.00 | 0.00 | 986.8 | |
| 20260510083520 | 41 | 8 | 0.0 | 0.0 | 0.00 | 0.00 | 0.00 | 986.8 | |
| 20260510083024 | 41 | 8 | 0.0 | 0.0 | 0.00 | 0.00 | 0.00 | 986.8 | |
| 20260510082519 | 42 | 8 | 0.0 | 0.0 | 0.00 | 0.00 | 0.00 | 986.8 | |
| 20260510082022 | 42 | 8 | 0.0 | 0.0 | 0.00 | 0.00 | 0.00 | 986.8 | |
| 20260510081514 | 42 | 8 | 0.0 | 0.0 | 0.00 | 0.00 | 0.00 | 986.8 | |
| 20260510081014 | 42 | 8 | 0.0 | 0.0 | 0.00 | 0.00 | 0.00 | 986.8 | |
| 20260510080514 | 43 | 8 | 0.0 | 0.0 | 0.00 | 0.00 | 0.00 | 986.8 | |
| 20260510080014 | 43 | 8 | 0.0 | 0.0 | 0.00 | 0.00 | 0.00 | 986.8 | |
| 20260510075515 | 43 | 8 | 0.0 | 0.0 | 0.00 | 0.00 | 0.00 | 986.8 | |
| 20260510075015 | 44 | 8 | 0.0 | 0.0 | 0.00 | 0.00 | 0.00 | 986.8 | |
| 20260510074514 | 44 | 8 | 0.0 | 0.0 | 0.00 | 0.00 | 0.00 | 986.8 | |
| 20260510074014 | 44 | 8 | 0.0 | 0.0 | 0.00 | 0.00 | 0.00 | 986.8 | |
| 20260510073523 | 45 | 8 | 0.0 | 0.0 | 0.00 | 0.00 | 0.00 | 986.8 | |
| 20260510073042 | 45 | 8 | 0.0 | 0.0 | 0.00 | 0.00 | 0.00 | 985.8 | |
| 20260510072516 | 45 | 8 | 0.0 | 0.0 | 0.00 | 0.00 | 0.00 | 985.8 | |
| 20260510072014 | 46 | 8 | 0.0 | 0.0 | 0.00 | 0.00 | 0.00 | 985.8 | |
| 20260510071518 | 46 | 8 | 0.0 | 0.0 | 0.00 | 0.00 | 0.00 | 986.8 | |
| 20260510071014 | 46 | 8 | 0.0 | 0.0 | 0.00 | 0.00 | 0.00 | 986.8 | |
| 20260510070517 | 46 | 8 | 0.0 | 0.0 | 0.00 | 0.00 | 0.00 | 986.8 | |
| 20260510070015 | 46 | 6 | 0.0 | 0.0 | 0.00 | 0.00 | 0.00 | 986.8 | |
| 20260510065514 | 46 | 6 | 0.0 | 0.0 | 0.00 | 0.00 | 0.00 | 986.8 | |
| 20260510065013 | 46 | 6 | 0.0 | 0.0 | 0.00 | 0.00 | 0.00 | 986.8 | |
| 20260510064514 | 46 | 42 | 0.0 | 0.0 | 0.00 | 0.00 | 0.00 | 985.8 | |
| 20260510064014 | 46 | 65 | 0.0 | 0.0 | 0.00 | 0.00 | 0.00 | 985.8 | |
| 20260510063535 | 47 | 48 | 0.0 | 0.0 | 0.00 | 0.00 | 0.00 | 985.8 | |
| 20260510063021 | 47 | 47 | 0.0 | 0.0 | 0.00 | 0.00 | 0.00 | 985.8 | |
| 20260510062515 | 47 | 47 | 0.0 | 0.0 | 0.00 | 0.00 | 0.00 | 985.8 | |
| 20260510062015 | 47 | 35 | 0.0 | 0.0 | 0.00 | 0.00 | 0.00 | 985.8 | |
| 20260510061515 | 47 | 53 | 0.0 | 0.0 | 0.00 | 0.00 | 0.00 | 986.8 | |
| 20260510061014 | 47 | 52 | 0.0 | 0.0 | 0.00 | 0.00 | 0.00 | 986.8 | |
| 20260510060515 | 47 | 50 | 0.0 | 0.0 | 0.00 | 0.00 | 0.00 | 986.8 | |
| 20260510060015 | 47 | 350 | 0.0 | 0.0 | 0.00 | 0.00 | 0.00 | 985.8 | |
| 20260510055517 | 47 | 49 | 0.0 | 0.0 | 0.00 | 0.00 | 0.00 | 985.8 | |
| 20260510055014 | 47 | 46 | 0.0 | 0.0 | 0.00 | 0.00 | 0.00 | 985.8 | |
| 20260510054515 | 47 | 48 | 0.0 | 0.0 | 0.00 | 0.00 | 0.00 | 985.8 | |
| 20260510054014 | 46 | 48 | 0.0 | 0.0 | 0.00 | 0.00 | 0.00 | 985.8 | |
| 20260510053513 | 45 | 48 | 0.0 | 0.0 | 0.00 | 0.00 | 0.00 | 985.8 | |
| 20260510053018 | 45 | 357 | 0.0 | 0.0 | 0.00 | 0.00 | 0.00 | 984.8 | |
| 20260510052514 | 45 | 357 | 0.0 | 0.0 | 0.00 | 0.00 | 0.00 | 984.8 | |
| 20260510052013 | 45 | 357 | 0.0 | 0.0 | 0.00 | 0.00 | 0.00 | 984.8 | |
| 20260510051522 | 45 | 357 | 0.0 | 0.0 | 0.00 | 0.00 | 0.00 | 984.8 | |
| 20260510051014 | 46 | 357 | 0.0 | 0.0 | 0.00 | 0.00 | 0.00 | 984.8 | |
| 20260510050539 | 46 | 357 | 0.0 | 0.0 | 0.00 | 0.00 | 0.00 | 984.8 | |
| 20260510050016 | 46 | 357 | 0.0 | 0.0 | 0.00 | 0.00 | 0.00 | 984.8 | |
| 20260510045539 | 46 | 357 | 0.0 | 0.0 | 0.00 | 0.00 | 0.00 | 984.8 | |
| 20260510045035 | 46 | 357 | 0.0 | 0.0 | 0.00 | 0.00 | 0.00 | 984.8 | |
| 20260510044519 | 46 | 357 | 0.0 | 0.0 | 0.00 | 0.00 | 0.00 | 984.8 | |
| 20260510044014 | 47 | 357 | 0.0 | 0.0 | 0.00 | 0.00 | 0.00 | 984.8 | |
| 20260510043514 | 47 | 357 | 0.0 | 0.0 | 0.00 | 0.00 | 0.00 | 984.8 | |
| 20260510043020 | 47 | 357 | 0.0 | 0.0 | 0.00 | 0.00 | 0.00 | 984.8 | |
| 20260510042514 | 47 | 357 | 0.0 | 0.0 | 0.00 | 0.00 | 0.00 | 984.8 | |
| 20260510042014 | 47 | 357 | 0.0 | 0.0 | 0.00 | 0.00 | 0.00 | 984.8 | |
| 20260510041514 | 47 | 357 | 0.0 | 0.0 | 0.00 | 0.00 | 0.00 | 983.8 | |
| 20260510041016 | 47 | 357 | 0.0 | 0.0 | 0.00 | 0.00 | 0.00 | 983.8 | |
| 20260510040514 | 48 | 357 | 0.0 | 0.0 | 0.00 | 0.00 | 0.00 | 983.8 | |
| 20260510040016 | 48 | 357 | 0.0 | 0.0 | 0.00 | 0.00 | 0.00 | 983.8 | |
| 20260510035515 | 48 | 357 | 0.0 | 0.0 | 0.00 | 0.00 | 0.00 | 983.8 | |
| 20260510035015 | 49 | 357 | 0.0 | 0.0 | 0.00 | 0.00 | 0.00 | 983.8 | |
| 20260510034514 | 49 | 357 | 0.0 | 0.0 | 0.00 | 0.00 | 0.00 | 983.8 | |
| 20260510034022 | 49 | 357 | 0.0 | 0.0 | 0.00 | 0.00 | 0.00 | 983.8 | |
| 20260510033514 | 49 | 357 | 0.0 | 0.0 | 0.00 | 0.00 | 0.00 | 983.8 | |
| 20260510033015 | 50 | 357 | 0.0 | 0.0 | 0.00 | 0.00 | 0.00 | 983.8 | |
| 20260510032514 | 50 | 357 | 0.0 | 0.0 | 0.00 | 0.00 | 0.00 | 983.8 | |
| 20260510032035 | 50 | 357 | 0.0 | 0.0 | 0.00 | 0.00 | 0.00 | 983.8 | |
| 20260510031519 | 50 | 357 | 0.0 | 0.0 | 0.00 | 0.00 | 0.00 | 983.8 | |
| 20260510031018 | 51 | 357 | 0.0 | 0.0 | 0.00 | 0.00 | 0.00 | 983.8 | |
| 20260510030537 | 51 | 357 | 0.0 | 0.0 | 0.00 | 0.00 | 0.00 | 983.8 | |
| 20260510030021 | 51 | 357 | 0.0 | 0.0 | 0.00 | 0.00 | 0.00 | 983.8 | |
| 20260510025539 | 52 | 357 | 0.0 | 0.0 | 0.00 | 0.00 | 0.00 | 983.8 | |
| 20260510025015 | 52 | 357 | 0.0 | 0.0 | 0.00 | 0.00 | 0.00 | 983.8 | |
| 20260510024515 | 53 | 357 | 0.0 | 0.0 | 0.00 | 0.00 | 0.00 | 982.8 | |
| 20260510024014 | 53 | 357 | 0.0 | 0.0 | 0.00 | 0.00 | 0.00 | 982.8 | |
| 20260510023518 | 54 | 357 | 0.0 | 0.0 | 0.00 | 0.00 | 0.00 | 982.8 | |
| 20260510023015 | 54 | 357 | 0.0 | 0.0 | 0.00 | 0.00 | 0.00 | 982.8 | |
| 20260510022516 | 55 | 357 | 0.0 | 0.0 | 0.00 | 0.00 | 0.00 | 982.8 | |
| 20260510022015 | 55 | 357 | 0.0 | 0.0 | 0.00 | 0.00 | 0.00 | 982.8 | |
| 20260510021515 | 55 | 357 | 0.0 | 0.0 | 0.00 | 0.00 | 0.00 | 982.8 | |
| 20260510021013 | 56 | 357 | 0.0 | 0.0 | 0.00 | 0.00 | 0.00 | 982.8 | |
| 20260510020514 | 56 | 357 | 0.0 | 0.0 | 0.00 | 0.00 | 0.00 | 982.8 | |
| 20260510020019 | 57 | 357 | 0.0 | 0.0 | 0.00 | 0.00 | 0.00 | 981.8 | |
| 20260510015514 | 57 | 357 | 0.0 | 0.0 | 0.00 | 0.00 | 0.00 | 981.8 | |
| 20260510015014 | 57 | 357 | 0.0 | 0.0 | 0.00 | 0.00 | 0.00 | 981.8 | |
| 20260510014514 | 58 | 357 | 0.0 | 0.0 | 0.00 | 0.00 | 0.00 | 981.8 | |
| 20260510014014 | 58 | 357 | 0.0 | 0.0 | 0.00 | 0.00 | 0.00 | 981.8 | |
| 20260510013514 | 59 | 357 | 0.0 | 0.0 | 0.00 | 0.00 | 0.00 | 981.8 | |
| 20260510013018 | 59 | 357 | 0.0 | 0.0 | 0.00 | 0.00 | 0.00 | 981.8 | |
| 20260510012518 | 60 | 357 | 0.0 | 0.0 | 0.00 | 0.00 | 0.00 | 981.8 | |
| 20260510012018 | 60 | 357 | 0.0 | 0.0 | 0.00 | 0.00 | 0.00 | 981.8 | |
| 20260510011538 | 60 | 357 | 0.0 | 0.0 | 0.00 | 0.00 | 0.00 | 980.8 | |
| 20260510011020 | 60 | 357 | 0.0 | 0.0 | 0.00 | 0.00 | 0.00 | 980.8 | |
| 20260510010536 | 61 | 5 | 0.0 | 0.0 | 0.00 | 0.00 | 0.00 | 980.8 | |
| 20260510010024 | 61 | 320 | 0.0 | 0.0 | 0.00 | 0.00 | 0.00 | 980.8 | |
| 20260510005524 | 62 | 311 | 0.0 | 0.0 | 0.00 | 0.00 | 0.00 | 980.8 | |
| 20260510005013 | 62 | 340 | 0.0 | 0.0 | 0.00 | 0.00 | 0.00 | 980.8 | |
| 20260510004517 | 62 | 349 | 0.0 | 2.0 | 0.00 | 0.00 | 0.00 | 980.8 | |
| 20260510004013 | 63 | 0 | 0.0 | 2.0 | 0.00 | 0.00 | 0.00 | 980.8 | |
| 20260510003523 | 63 | 319 | 0.0 | 0.0 | 0.00 | 0.00 | 0.00 | 980.8 | |
| 20260510003015 | 63 | 342 | 0.0 | 0.0 | 0.00 | 0.00 | 0.00 | 980.8 | |
| 20260510002513 | 64 | 12 | 0.0 | 3.0 | 0.00 | 0.00 | 0.00 | 980.8 | |
| 20260510002017 | 64 | 17 | 2.0 | 0.0 | 0.00 | 0.00 | 0.00 | 980.8 | |
| 20260510001514 | 64 | 338 | 0.0 | 5.0 | 0.00 | 0.00 | 0.00 | 979.8 | |
| 20260510001013 | 65 | 332 | 2.0 | 0.0 | 0.00 | 0.00 | 0.00 | 979.8 | |
| 20260510000516 | 65 | 337 | 0.0 | 0.0 | 0.00 | 0.00 | 0.00 | 979.8 | |
| 20260510000016 | 65 | 4 | 0.0 | 0.0 | 0.00 | 0.00 | 0.00 | 979.8 | |
| 20260509235515 | 66 | 11 | 0.0 | 0.0 | 0.00 | 0.00 | 0.00 | 979.8 | |
| 20260509235014 | 66 | 312 | 0.0 | 5.0 | 0.00 | 0.00 | 0.00 | 979.8 | |
| 20260509234514 | 66 | 307 | 0.0 | 0.0 | 0.00 | 0.00 | 0.00 | 979.8 | |
| 20260509234036 | 66 | 326 | 3.0 | 4.0 | 0.00 | 0.00 | 0.00 | 979.8 | |
| 20260509233514 | 66 | 340 | 3.0 | 4.0 | 0.00 | 0.00 | 0.00 | 979.8 | |
| 20260509233016 | 67 | 316 | 4.0 | 6.0 | 0.00 | 0.00 | 0.00 | 978.8 | |
| 20260509232522 | 67 | 9 | 3.0 | 3.0 | 0.00 | 0.00 | 0.00 | 978.8 | |
| 20260509232015 | 67 | 262 | 2.0 | 6.0 | 0.00 | 0.00 | 0.00 | 978.8 | |
| 20260509231515 | 68 | 345 | 0.0 | 0.0 | 0.00 | 0.00 | 0.00 | 978.8 | |
| 20260509231014 | 68 | 283 | 4.0 | 0.0 | 0.00 | 0.00 | 0.00 | 978.8 | |
| 20260509230518 | 68 | 301 | 2.0 | 3.0 | 0.00 | 0.00 | 0.00 | 978.8 | |
| 20260509230015 | 68 | 333 | 4.0 | 0.0 | 0.00 | 0.00 | 0.00 | 978.8 | |
| 20260509225534 | 68 | 342 | 2.0 | 10.0 | 0.00 | 0.00 | 0.00 | 978.8 | |
| 20260509225014 | 68 | 335 | 3.0 | 0.0 | 0.00 | 0.00 | 0.00 | 978.8 | |
| 20260509224515 | 68 | 339 | 4.0 | 0.0 | 0.00 | 0.00 | 0.00 | 978.8 | |
| 20260509224014 | 69 | 274 | 4.0 | 4.0 | 0.00 | 0.00 | 0.00 | 978.8 | |
| 20260509223513 | 69 | 331 | 3.0 | 0.0 | 0.00 | 0.00 | 0.00 | 978.8 | |
| 20260509223014 | 69 | 265 | 3.0 | 4.0 | 0.00 | 0.00 | 0.00 | 978.8 | |
| 20260509222535 | 69 | 270 | 4.0 | 0.0 | 0.00 | 0.00 | 0.00 | 978.8 | |
| 20260509222014 | 69 | 41 | 5.0 | 5.0 | 0.00 | 0.00 | 0.00 | 978.8 | |
| 20260509221517 | 69 | 281 | 3.0 | 2.0 | 0.00 | 0.00 | 0.00 | 977.8 | |
| 20260509221014 | 69 | 250 | 6.0 | 4.0 | 0.00 | 0.00 | 0.00 | 977.8 | |
| 20260509220521 | 70 | 332 | 7.0 | 8.0 | 0.00 | 0.00 | 0.00 | 977.8 | |
| 20260509220024 | 70 | 280 | 5.0 | 5.0 | 0.00 | 0.00 | 0.00 | 977.8 | |
| 20260509215515 | 70 | 296 | 4.0 | 5.0 | 0.00 | 0.00 | 0.00 | 977.8 | |
| 20260509215013 | 70 | 327 | 5.0 | 4.0 | 0.00 | 0.00 | 0.00 | 977.8 | |
| 20260509214535 | 70 | 357 | 5.0 | 10.0 | 0.00 | 0.00 | 0.00 | 977.8 | |
| 20260509214016 | 71 | 294 | 5.0 | 10.0 | 0.00 | 0.00 | 0.00 | 977.8 | |
| 20260509213514 | 71 | 329 | 5.0 | 7.0 | 0.00 | 0.00 | 0.00 | 977.8 | |
| 20260509213025 | 71 | 329 | 4.0 | 13.0 | 0.00 | 0.00 | 0.00 | 976.8 | |
| 20260509212514 | 72 | 305 | 4.0 | 5.0 | 0.00 | 0.00 | 0.00 | 976.8 | |
| 20260509212018 | 72 | 320 | 2.0 | 4.0 | 0.00 | 0.00 | 0.00 | 976.8 | |
| 20260509211521 | 72 | 187 | 4.0 | 5.0 | 0.00 | 0.00 | 0.00 | 976.8 | |
| 20260509211037 | 72 | 94 | 6.0 | 0.0 | 0.00 | 0.00 | 0.00 | 976.8 | |
| 20260509210513 | 72 | 142 | 4.0 | 4.0 | 0.00 | 0.00 | 0.00 | 976.8 | |
| 20260509210026 | 72 | 272 | 7.0 | 5.0 | 0.00 | 0.00 | 0.00 | 976.8 | |
| 20260509205513 | 72 | 24 | 5.0 | 3.0 | 0.00 | 0.00 | 0.00 | 976.8 | |
| 20260509205020 | 72 | 259 | 7.0 | 3.0 | 0.00 | 0.00 | 0.00 | 976.8 |